sat.trackr.live / text

‹ back to catalog

KUIPER-00147

NORAD 65768 · 2025-217G

PAYLOAD ACTIVE UNKNOWN

§ Identity

Operator
Country
US
Launch date
2025-09-25
Launch site
AFETR
Launch vehicle
Mass (kg)
RCS (m²)

External: N2YO · Heavens-Above · Gunter

§ Orbital elements

Epoch: 2026-09-20T16:16:43.933728Z

Period
97.30 min
Inclination
51.8987°
Eccentricity
0.0000699
Mean motion
14.79957341 rev/d
Perigee alt
629.0 km
Apogee alt
629.9 km
Semi-major
7,007.6 km
B*
2.4652e-4
RAAN
258.3361°
Arg perigee
31.2367°
Mean anomaly
328.8637°
Rev number
5,378

§ Raw data

KUIPER-001471 65768U 25217G   26263.67828627  .00001660  00000+0  24652-3 0  99982 65768  51.8987 258.3361 0000699  31.2367 328.8637 14.79957341 53786

JSON: /api/v1/satellites/65768 · /tle

For live sub-satellite position, see the globe view (requires WebGL).

§ Visibility from observer

Set your observer location to see the next 7 days of passes ≥ 10°. The values pass through the URL so the page stays shareable.

No JS? Fill the form by hand. The geolocation button needs JavaScript.